Location: Huppendorf
(49.9333°N, 11.1500°E)
Time: 14:51:35
(UTC+00:00)

STARLINK-1020 - Pass Details

Date: 27 February 2020
Orbit: 549 x 550 km, 53.0° (Epoch: 08 April)

Event Time Altitude Azimuth Distance (km) Brightness Sun altitude
Rises 17:55:27 0° 252° (WSW) 2,714 8.8 -10.8°
Reaches altitude 10° 17:57:41 10° 254° (WSW) 1,823 7.6 -11.1°
Maximum altitude 18:01:50 79° 341° (NNW) 566 3.7 -11.8°
Enters shadow 18:05:03 17° 67° (ENE) 1,456 5.2 -12.3°
